This is the latest recevied weather packets stored in our database for station/object EA8EE-7. If no packets are shown the sender has not sent any weather packets the latest 10 day(s).
| Time | Temp. | Humidity | Pressure | Rain* | Wind** | Luminosity | Snow |
|---|---|---|---|---|---|---|---|
| 1788431197 | 34.44° C | 36% | 1029.3 hPa | - | - | - | - |
| 1788430597 | 35.56° C | 35% | 1029.6 hPa | - | - | - | - |
| 1788429997 | 36.11° C | 34% | 1026.9 hPa | - | - | - | - |
| 1788429397 | 36.11° C | 35% | 1028.4 hPa | - | - | - | - |
| 1788428797 | 36.11° C | 35% | 1028.1 hPa | - | - | - | - |
| 1788428197 | 36.11° C | 35% | 1028.1 hPa | - | - | - | - |
| 1788427597 | 36.11° C | 35% | 1027.4 hPa | - | - | - | - |
| 1788426997 | 36.11° C | 35% | 1027 hPa | - | - | - | - |
| 1788426397 | 35.56° C | 36% | 1026.8 hPa | - | - | - | - |
| 1788425797 | 35.56° C | 36% | 1027.2 hPa | - | - | - | - |
| 1788425196 | 35.56° C | 36% | 1027.9 hPa | - | - | - | - |
| 1788424597 | 35.56° C | 36% | 1026.5 hPa | - | - | - | - |
| 1788423997 | 35.56° C | 36% | 1026.1 hPa | - | - | - | - |
| 1788423397 | 35.56° C | 35% | 1025.9 hPa | - | - | - | - |
| 1788422798 | 35.56° C | 36% | 1025.9 hPa | - | - | - | - |
| 1788422196 | 35° C | 36% | 1026.2 hPa | - | - | - | - |
| 1788421597 | 35° C | 36% | 1025.9 hPa | - | - | - | - |
| 1788420996 | 35° C | 36% | 1026.7 hPa | - | - | - | - |
| 1788420397 | 35° C | 36% | 1027.6 hPa | - | - | - | - |
| 1788419796 | 35° C | 37% | 1027.6 hPa | - | - | - | - |
| 1788419196 | 35° C | 37% | 1027 hPa | - | - | - | - |
| 1788418596 | 35° C | 36% | 1028.9 hPa | - | - | - | - |
| 1788417996 | 35° C | 37% | 1028.3 hPa | - | - | - | - |
| 1788417396 | 35° C | 37% | 1027.9 hPa | - | - | - | - |
| 1788416796 | 35.56° C | 37% | 1025.8 hPa | - | - | - | - |
* Rain since midnight (hover to see other rain measurements)
** Current wind speed in m/s (hover to see current wind gust speed)